This demonstration page uses our WeatherBlox Daily Observations layout. Learn more.

Left ArrowRight Arrow

Hourly Observations for October 2, 2015

Temp ( °F °C ) Dew Point ( °F °C ) Humidity (%) Winds ( mph kmh ) Pressure ( in mb ) Visibility ( mi km ) Precip ( " mm )
12:15 am 00:15 Clear 55 13 39 4 55 55 ESE 13 20 30.27 1025 10 16 0.00 0.00
12:35 am 00:35 Mostly Clear 55 13 39 4 55 55 ESE 12 19 30.27 1025 10 16 0.00 0.00
12:55 am 00:55 Clear 55 13 39 4 55 55 ESE 10 17 30.27 1025 10 16 0.00 0.00
1:15 am 01:15 Mostly Clear 54 12 39 4 58 58 ESE 8 13 30.27 1025 10 16 0.00 0.00
1:35 am 01:35 Mostly Clear 54 12 39 4 58 58 ESE 8 13 30.27 1025 10 16 0.00 0.00
1:55 am 01:55 Partly Cloudy 54 12 39 4 58 58 ESE 9 15 30.27 1025 10 16 0.00 0.00
2:15 am 02:15 Mostly Cloudy 54 12 37 3 54 54 ESE 12 19 30.27 1025 10 16 0.00 0.00
2:35 am 02:35 Cloudy 54 12 37 3 54 54 ESE 14 22 30.27 1025 10 16 0.00 0.00
2:55 am 02:55 Mostly Cloudy 52 11 39 4 62 62 ESE 14 22 30.27 1025 10 16 0.00 0.00
3:15 am 03:15 Mostly Clear 52 11 39 4 62 62 SE 13 20 30.27 1025 10 16 0.00 0.00
3:35 am 03:35 Clear 52 11 39 4 62 62 ESE 9 15 30.27 1025 10 16 0.00 0.00
3:55 am 03:55 Clear 52 11 39 4 62 62 SE 10 17 30.27 1025 10 16 0.00 0.00
4:15 am 04:15 Clear 52 11 39 4 62 62 ESE 8 13 30.27 1025 10 16 0.00 0.00
4:35 am 04:35 Clear 52 11 39 4 62 62 E 8 13 30.27 1025 10 16 0.00 0.00
4:55 am 04:55 Clear 50 10 39 4 67 67 ESE 7 11 30.30 1026 10 16 0.00 0.00
5:15 am 05:15 Clear 48 9 39 4 71 71 SE 8 13 30.30 1026 10 16 0.00 0.00
5:35 am 05:35 Clear 48 9 39 4 71 71 ESE 6 9 30.30 1026 10 16 0.00 0.00
5:55 am 05:55 Clear 48 9 39 4 71 71 ESE 6 9 30.30 1026 10 16 0.00 0.00
6:15 am 06:15 Clear 46 8 39 4 76 76 ESE 7 11 30.30 1026 10 16 0.00 0.00
6:35 am 06:35 Clear 46 8 39 4 76 76 E 6 9 30.30 1026 10 16 0.00 0.00
6:55 am 06:55 Clear 46 8 39 4 76 76 E 6 9 30.30 1026 10 16 0.00 0.00
7:15 am 07:15 Clear 46 8 39 4 76 76 E 5 7 30.30 1026 10 16 0.00 0.00
7:35 am 07:35 Sunny 45 7 37 3 76 76 E 6 9 30.33 1027 10 16 0.00 0.00
7:55 am 07:55 Partly Cloudy 45 7 39 4 81 81 E 6 9 30.33 1027 10 16 0.00 0.00
8:15 am 08:15 Cloudy 46 8 39 4 76 76 E 5 7 30.33 1027 10 16 0.00 0.00
8:35 am 08:35 Cloudy 46 8 41 5 82 82 E 7 11 30.33 1027 10 16 0.00 0.00
8:55 am 08:55 Cloudy 48 9 41 5 76 76 ESE 7 11 30.30 1026 10 16 0.00 0.00
9:15 am 09:15 Cloudy 50 10 41 5 71 71 ESE 12 19 30.30 1026 10 16 0.00 0.00
9:35 am 09:35 Mostly Cloudy 50 10 39 4 67 67 ESE 12 19 30.30 1026 10 16 0.00 0.00
9:55 am 09:55 Partly Cloudy 54 12 41 5 63 63 ESE 13 20 30.27 1025 10 16 0.00 0.00
10:15 am 10:15 Mostly Sunny 54 12 41 5 63 63 SE 15 24 30.27 1025 10 16 0.00 0.00
10:35 am 10:35 Mostly Sunny 55 13 41 5 59 59 SE 10 17 30.27 1025 10 16 0.00 0.00
10:55 am 10:55 Sunny 57 14 39 4 51 51 ESE 14 22 30.27 1025 10 16 0.00 0.00
11:15 am 11:15 Sunny 57 14 39 4 51 51 ESE 14 22 30.27 1025 10 16 0.00 0.00
11:35 am 11:35 Sunny 57 14 39 4 51 51 SE 10 17 30.27 1025 10 16 0.00 0.00
11:55 am 11:55 Sunny 59 15 39 4 48 48 SE 17 28 30.24 1024 10 16 0.00 0.00
12:15 pm 12:15 Sunny 61 16 41 5 48 48 SE 16 26 30.24 1024 10 16 0.00 0.00
12:35 pm 12:35 Sunny 61 16 39 4 45 45 ESE 13 20 30.24 1024 10 16 0.00 0.00
12:55 pm 12:55 Sunny 61 16 39 4 45 45 SE 9 15 30.24 1024 10 16 0.00 0.00
1:15 pm 13:15 Sunny 63 17 39 4 42 42 E 13 20 30.21 1023 10 16 0.00 0.00
1:35 pm 13:35 Sunny 63 17 39 4 42 42 SE 12 19 30.21 1023 10 16 0.00 0.00
1:55 pm 13:55 Sunny 63 17 37 3 39 39 ESE 12 19 30.18 1022 10 16 0.00 0.00
2:15 pm 14:15 Sunny 63 17 37 3 39 39 ESE 15 24 30.18 1022 10 16 0.00 0.00
2:35 pm 14:35 Sunny 63 17 37 3 39 39 SE 16 26 30.15 1021 10 16 0.00 0.00
2:55 pm 14:55 Sunny 63 17 37 3 39 39 E 17 28 30.15 1021 10 16 0.00 0.00
3:15 pm 15:15 Sunny 63 17 37 3 39 39 SE 14 22 30.15 1021 10 16 0.00 0.00
3:35 pm 15:35 Sunny 63 17 36 2 37 37 E 13 20 30.15 1021 10 16 0.00 0.00
3:55 pm 15:55 Sunny 64 18 36 2 34 34 ESE 16 26 30.12 1020 10 16 0.00 0.00
4:15 pm 16:15 Sunny 66 19 36 2 32 32 E 14 22 30.09 1019 10 16 0.00 0.00
4:35 pm 16:35 Sunny 64 18 36 2 34 34 ESE 14 22 30.09 1019 10 16 0.00 0.00
4:55 pm 16:55 Sunny 64 18 36 2 34 34 SE 16 26 30.09 1019 10 16 0.00 0.00
5:15 pm 17:15 Sunny 63 17 34 1 34 34 ESE 15 24 30.06 1018 10 16 0.00 0.00
5:35 pm 17:35 Sunny 63 17 36 2 37 37 ESE 16 26 30.06 1018 10 16 0.00 0.00
5:55 pm 17:55 Sunny 63 17 36 2 37 37 E 17 28 30.06 1018 10 16 0.00 0.00
6:15 pm 18:15 Sunny 63 17 34 1 34 34 ESE 14 22 30.06 1018 10 16 0.00 0.00
6:35 pm 18:35 Sunny 61 16 34 1 36 36 ESE 15 24 30.09 1019 10 16 0.00 0.00
6:55 pm 18:55 Sunny 61 16 34 1 36 36 ESE 13 20 30.09 1019 10 16 0.00 0.00
7:15 pm 19:15 Sunny 59 15 32 0 36 36 ESE 13 20 30.09 1019 10 16 0.00 0.00
7:35 pm 19:35 Clear 57 14 32 0 39 39 E 14 22 30.09 1019 10 16 0.00 0.00
7:55 pm 19:55 Clear 57 14 32 0 39 39 E 13 20 30.06 1018 10 16 0.00 0.00
8:15 pm 20:15 Clear 55 13 34 1 44 44 E 10 17 30.09 1019 10 16 0.00 0.00
8:35 pm 20:35 Clear 55 13 34 1 44 44 E 10 17 30.09 1019 10 16 0.00 0.00
8:55 pm 20:55 Clear 54 12 36 2 51 51 E 8 13 30.12 1020 10 16 0.00 0.00
9:15 pm 21:15 Clear 52 11 36 2 54 54 E 7 11 30.12 1020 10 16 0.00 0.00
9:35 pm 21:35 Clear 52 11 37 3 58 58 E 12 19 30.12 1020 10 16 0.00 0.00

Powered by AerisWeather